Location: Camp Roosevelt
(41.7914°N, 81.1673°W)
Time: 08:33:38
(UTC+00:00)

Cosmos 1825 - Pass Details

Date: 29 October 2020
Orbit: 502 x 508 km, 82.5° (Epoch: 28 November)

Event Time Altitude Azimuth Distance (km) Brightness Sun altitude
Rises 23:30:26 0° 3° (N) 2,621 5.7 -13.3°
Reaches altitude 10° 23:32:48 10° 15° (NNE) 1,729 4.6 -13.7°
Maximum altitude 23:36:05 27° 76° (ENE) 988 3.0 -14.3°
Enters shadow 23:36:48 26° 96° (E) 1,035 3.1 -14.4°
